COSMOS 2251 DEB, 33945

Orbit data source: Space-Track

COSMOS 2251 DEB, 33945 is space debris in LEO originally from a launch on Wed, 16 Jun 1993 UTC launched from the Plesetsk Missile And Space Complex (PKMTR). The debris from Iridium 33, an American commercial communications satellite, has been tracked extensively since its accidental collision with the defunct Russian satellite Cosmos 2251 in 2009. This event, occurring at high speed in low Earth orbit (LEO), generated thousands of pieces of space debris, significantly increasing the risk of further collisions. The Iridium 33 debris cloud has impacted space traffic management and orbital debris mitigation strategies, making it a subject of ongoing study in space situational awareness.

Loading next visibility...
Identifier
33945, 1993-036FA
Orbit
LEO
Country
Flag of CISCIS
Related business
Manufacturer
Unknown
Mission
Spacecraft
Bus & Motor
Unknown
Mass
Unknown
Launch date (UTC)
Icon of a cake. It is the launch day of the satellite!1993-06-16 (33 years ago)
Launch vehicle
Unknown
Launch site
Plesetsk Missile And Space Complex (PKMTR)
Object type
Payload
Rocket body
Debris
Shape & HBR
Unknown shape, 0.3 m
Radar Cross Section
Medium (>0.1 m² and <1 m²)

Expand to show TLE details & history
Last TLE update: 11 hours ago

TLE from 11 hours ago
0 COSMOS 2251 DEB
1 33945U 93036FA  26167.19277889  .00000209  00000-0  82867-4 0  9994
2 33945  74.0299 326.4130 0022700   9.1164 351.0395 14.34736679906751
Epoch: 2026-06-16T04:37Z
TLE epoch observation values (Epoch: 2026-06-16T04:37:36.096Z)
Latitude
-0.00004°
Longitude
-7.45575°
Altitude
762.507 km
Speed
7.482 km/s
True Right ascension
21h 45m 39s
True Declination
0° 00' 00"
Sunlit
Object was in daylight at epoch
Visualization orbit readout
Latitude
Unknown
Longitude
Unknown
Altitude
Unknown
Speed
Unknown
Apparent Right ascension
Unknown
Apparent Declination
Unknown
Sunlit
N/A
Visualization observer readout
Local Sidereal Time
02:41:22
Azimuth
Unknown
Elevation
Unknown
Doppler factor
Unknown
Orbital elements
Apogee altitude
789.802 km
Perigee altitude
757.333 km
Semi-major axis
7,151.705 km
Eccentricity
0.00227
Inclination
74.0299°
RAAN
326.413°
Arg. of periapsis
9.1164°
True anomaly
350.99887°
Mean anomaly
351.0395°
Eccentric anomaly
351.0192°
Mean motion
3.58863 °/min
Orbital period
100.32 mins
BSTAR
0.000082867

Documentation

Showing up to 5 results
|